Dublin, Ireland

8:18 AM IST on June 23, 2017 (GMT +0100)
Dublin International

Weather History for EIDW - May, 2012

Change the Weather History Date:

Monday, May 7, 2012

  Actual Average Record
Temperature  
Mean Temperature 46 °F -  
Max Temperature 56 °F 59 °F 66 °F (2008)
Min Temperature 37 °F 45 °F 32 °F (1997)
Degree Days  
Heating Degree Days 18    
Moisture  
Dew Point 42 °F    
Average Humidity 82    
Maximum Humidity 100    
Minimum Humidity 52    
Precipitation  
Precipitation 0.24 in 0.07 in - ()
Sea Level Pressure  
Sea Level Pressure 29.72 in    
Wind  
Wind Speed 12 mph ()    
Max Wind Speed 24 mph    
Max Gust Speed -    
Visibility 6.3 miles    
Events Rain    
Averages and records for this station are not official NWS values.
T = Trace of Precipitation, MM = Missing Value Source: Averaged Metar Reports

Daily Weather History Graph

Daily Weather History Graph

Search for Another Location

Airport or City:

Trip Planner

Search our weather history database for the weather conditions in past years. The results will help you decide how hot, cold, wet, or windy it might be!

Date:

Astronomy

May. 07, 2012 Rise Set
Actual Time 5:38 AM IST 9:05 PM IST
Civil Twilight 4:55 AM IST 9:48 PM IST
Nautical Twilight 3:58 AM IST 10:46 PM IST
Astronomical Twilight 2:33 AM IST 12:15 AM IST
Moon 11:17 PM IST (5/7) 6:18 AM IST (5/7)
Length of Visible Light 16h 52m
Length of Day
15h 27m
Full, 97% of the Moon is Illuminated
May 7
Full
May 12
Last Quarter
May 21
New
May 28
First Quarter
Jun 4
Full

Hourly Weather History & Observations

Time (IST) Temp. Windchill Dew Point Humidity Pressure Visibility Wind Dir Wind Speed Gust Speed Precip Events Conditions
12:30 AM 37.4 °F 30.8 °F 35.6 °F 93% 29.92 in 6.2 mi East 9.2 mph - N/A   Scattered Clouds
1:00 AM 39 °F - 36 °F 86% 29.92 in 31 mi ESE 8.9 mph - -   Scattered Clouds
1:00 AM 39.2 °F 33.6 °F 35.6 °F 87% 29.89 in 6.2 mi ESE 8.1 mph - N/A   Scattered Clouds
1:30 AM 42.8 °F 37.0 °F 39.2 °F 87% 29.89 in 6.2 mi ESE 10.4 mph - N/A   Scattered Clouds
2:00 AM 42.8 °F 37.0 °F 39.2 °F 87% 29.89 in 6.2 mi ESE 10.4 mph - N/A   Scattered Clouds
2:30 AM 44.6 °F 38.8 °F 41.0 °F 87% 29.86 in 6.2 mi East 11.5 mph - N/A   Mostly Cloudy
3:00 AM 44.6 °F 39.2 °F 41.0 °F 87% 29.86 in 6.2 mi East 10.4 mph - N/A   Mostly Cloudy
3:30 AM 44.6 °F 38.4 °F 41.0 °F 87% 29.83 in 6.2 mi East 12.7 mph - N/A   Mostly Cloudy
4:00 AM 44.6 °F 38.4 °F 41.0 °F 87% 29.83 in 6.2 mi ESE 12.7 mph - N/A   Overcast
4:30 AM 46.4 °F 40.4 °F 42.8 °F 87% 29.83 in 6.2 mi SE 13.8 mph - N/A Rain Light Rain
5:00 AM 42.8 °F 33.5 °F 39.2 °F 87% 29.83 in 4.3 mi SSE 23.0 mph - N/A Rain Rain
5:30 AM 42.8 °F 35.4 °F 39.2 °F 87% 29.80 in 6.2 mi ESE 15.0 mph - N/A   Mostly Cloudy
6:00 AM 44.6 °F 37.4 °F 41.0 °F 87% 29.77 in 6.2 mi ESE 16.1 mph - N/A   Mostly Cloudy
6:30 AM 44.6 °F 35.7 °F 39.2 °F 81% 29.77 in 6.2 mi SE 24.2 mph - N/A Rain Light Rain
7:00 AM 44 °F - 41 °F 86% 29.79 in 12 mi SE 20.1 mph - - Rain Light Rain
7:00 AM 44.6 °F 36.4 °F 41.0 °F 87% 29.77 in 6.2 mi SE 20.7 mph - N/A Rain Light Rain
7:30 AM 44.6 °F 35.7 °F 41.0 °F 87% 29.74 in 6.2 mi SE 24.2 mph - N/A Rain Light Rain
8:00 AM 44.6 °F 35.9 °F 42.8 °F 93% 29.74 in 4.3 mi SE 23.0 mph - N/A Rain Light Rain
8:30 AM 44.6 °F 35.7 °F 42.8 °F 93% 29.74 in 5.6 mi SE 24.2 mph - N/A Rain Light Rain
9:00 AM 44.6 °F 36.4 °F 42.8 °F 93% 29.74 in 4.3 mi SE 20.7 mph - N/A Rain Light Rain
9:30 AM 44.6 °F 36.1 °F 42.8 °F 93% 29.71 in 4.3 mi SE 21.9 mph - N/A Rain Light Rain
10:00 AM 44.6 °F 36.4 °F 44.6 °F 100% 29.71 in 5.6 mi SE 20.7 mph - N/A Rain Light Rain
10:30 AM 46.4 °F 38.7 °F 44.6 °F 93% 29.68 in 5.6 mi SE 20.7 mph - N/A Rain Light Rain
11:00 AM 48.2 °F - 48.2 °F 100% 29.68 in 6.2 mi SE 18.4 mph - N/A   Mostly Cloudy
11:30 AM 53.6 °F - 46.4 °F 77% 29.68 in 6.2 mi SSE 11.5 mph - N/A   Mostly Cloudy
12:00 PM 53.6 °F - 42.8 °F 67% 29.68 in 6.2 mi SSE 11.5 mph - N/A   Mostly Cloudy
12:30 PM 53.6 °F - 42.8 °F 67% 29.68 in 6.2 mi SW 12.7 mph - N/A   Mostly Cloudy
1:00 PM 55 °F - 42 °F 52% 29.68 in 16 mi South 17.9 mph - - Rain Light Rain Showers
1:00 PM 55.4 °F - 42.8 °F 63% 29.65 in 6.2 mi SSW 16.1 mph - N/A   Mostly Cloudy
1:30 PM 53.6 °F - 42.8 °F 67% 29.68 in 6.2 mi SSW 17.3 mph - N/A   Scattered Clouds
2:00 PM 57.2 °F - 42.8 °F 59% 29.68 in 6.2 mi SSW 15.0 mph - N/A   Partly Cloudy
2:30 PM 55.4 °F - 41.0 °F 58% 29.65 in 6.2 mi SSW 13.8 mph - N/A   Scattered Clouds
3:00 PM 51.8 °F - 46.4 °F 82% 29.65 in 6.2 mi WSW 9.2 mph - N/A   Scattered Clouds
3:30 PM 48.2 °F - 42.8 °F 82% 29.68 in 6.2 mi WSW 17.3 mph - N/A   Partly Cloudy
4:00 PM 50.0 °F - 44.6 °F 82% 29.65 in 6.2 mi SW 18.4 mph - N/A   Scattered Clouds
4:30 PM 50.0 °F - 42.8 °F 76% 29.65 in 6.2 mi South 17.3 mph - N/A   Scattered Clouds
5:00 PM 53.6 °F - 42.8 °F 67% 29.65 in 6.2 mi SSW 13.8 mph - N/A   Partly Cloudy
5:30 PM 51.8 °F - 41.0 °F 67% 29.65 in 6.2 mi SW 10.4 mph - N/A   Scattered Clouds
6:00 PM 48.2 °F - 44.6 °F 87% 29.65 in 6.2 mi SW 5.8 mph - N/A   Scattered Clouds
6:30 PM 48.2 °F - 42.8 °F 82% 29.65 in 6.2 mi South 11.5 mph - N/A   Scattered Clouds
7:00 PM 50 °F - 43 °F 69% 29.66 in 25 mi South 8.9 mph - - Rain Light Rain Showers
7:00 PM 50.0 °F - 42.8 °F 76% 29.65 in 6.2 mi South 10.4 mph - N/A   Scattered Clouds
7:30 PM 50.0 °F - 41.0 °F 71% 29.65 in 6.2 mi South 6.9 mph - N/A   Scattered Clouds
8:00 PM 50.0 °F - 41.0 °F 71% 29.65 in 6.2 mi SSW 12.7 mph - N/A Rain Light Rain Showers
8:30 PM 46.4 °F 44.3 °F 41.0 °F 81% 29.62 in 6.2 mi SSE 4.6 mph - N/A   Scattered Clouds
9:00 PM 46.4 °F 40.7 °F 41.0 °F 81% 29.65 in 6.2 mi West 12.7 mph - N/A   Scattered Clouds
9:30 PM 44.6 °F 41.4 °F 41.0 °F 87% 29.65 in 6.2 mi West 5.8 mph - N/A   Scattered Clouds
10:00 PM 42.8 °F 39.3 °F 41.0 °F 93% 29.65 in 6.2 mi West 5.8 mph - N/A   Mostly Cloudy
10:30 PM 42.8 °F 39.3 °F 41.0 °F 93% 29.65 in 6.2 mi WNW 5.8 mph - N/A   Mostly Cloudy
11:00 PM 42.8 °F 41.1 °F 41.0 °F 93% 29.65 in 6.2 mi Variable 3.5 mph - N/A   Scattered Clouds
11:30 PM 41.0 °F - 39.2 °F 93% 29.62 in 6.2 mi North 1.2 mph - N/A   Mostly Cloudy